[[{"header":{"parameterUnit":"m.s-1","parameterCategory":1,"la1":30.2992,"la2":30.254,"lo1":-89.0895,"lo2":-89.0443,"dy":0.0025,"dx":0.0025,"nx":19,"ny":19,"refTime":"2026-03-17T09:00:00:Z","depth":0,"parameterNumber":2,"parameterNumberName":"U-component_of_WINDS"},"data":[0,0,0,1.2162,1.2162,1.2132,1.2131,1.2095,1.2094,0,0,0,0,0,0,0,0,0,0,0,1.2173,1.2172,1.2162,1.2162,1.2132,1.2131,1.2095,1.2094,0,0,0,0,0,0,0,0,0,0,0,1.2173,1.2173,1.2172,1.2162,1.2132,1.2131,1.2095,1.2117,0,0,0,0,0,0,0,0,0,0,1.2146,1.2156,1.2173,1.2172,1.2161,1.2132,1.2131,1.2118,1.2115,1.2109,0,1.2105,0,1.2099,1.2092,1.2092,0,0,0,1.216,1.2159,1.2149,1.2172,1.2161,1.2132,1.2145,1.2116,1.2114,1.2106,1.2104,1.2103,1.2098,1.2092,1.2092,1.2063,1.2063,0,0,1.2162,1.2168,1.2151,1.2148,1.2153,1.2146,1.2144,1.2115,1.2112,1.2104,1.2102,1.2098,1.2092,1.2091,1.2063,1.2063,0,0,0,1.2168,1.2169,1.216,1.2149,1.2144,1.2145,1.2143,1.2114,1.2111,1.2101,1.2097,1.2091,1.2091,1.2063,1.2063,1.2066,0,0,0,1.2169,1.2172,1.2161,1.2164,1.2144,1.2128,1.2142,1.2113,1.2109,1.2098,1.2091,1.2091,1.2063,1.2063,1.2066,1.2066,0,0,0,1.2174,1.2173,1.2169,1.2165,1.2152,1.2129,1.2124,1.2112,1.2107,1.2092,1.2091,1.2063,1.2063,1.2066,1.2066,1.206,0,0,0,1.2181,1.217,1.2169,1.2156,1.2152,1.2131,1.2124,1.2108,1.2095,1.2091,1.2063,1.2063,1.2066,1.2066,1.2061,1.2057,1.2056,0,0,1.217,1.2169,1.2161,1.2159,1.214,1.2135,1.2116,1.2098,1.2091,1.2073,1.2072,1.2066,1.2066,1.206,1.2049,1.2049,0,0,0,1.2159,1.2153,1.2147,1.2136,1.2124,1.2114,1.2099,1.2093,1.2078,1.2083,1.2062,1.2062,1.2059,1.2057,1.2056,1.2053,1.2063,1.2063,1.2063,1.215,1.2144,1.213,1.2121,1.211,1.2097,1.2088,1.2078,1.2072,1.2068,1.2062,1.2056,1.2054,1.2054,1.2051,1.206,1.206,1.206,1.206,1.2134,1.2125,1.2121,1.2106,1.21,1.2087,1.2074,1.2072,1.2059,1.2059,1.2056,1.2057,1.2053,1.205,1.206,1.206,1.206,1.206,1.206,1.2127,1.2121,1.2116,1.2102,1.2091,1.2082,1.2071,1.2065,1.2059,1.2056,1.205,1.205,1.2049,1.2054,1.2054,1.2054,1.2054,1.2054,1.2054,1.2122,1.2115,1.2107,1.2096,1.2089,1.208,1.2069,1.2062,1.2053,1.205,1.205,1.2045,1.2054,1.2057,1.2053,1.2053,1.2053,1.2054,1.2054,1.2106,1.211,1.2097,1.2091,1.2078,1.2069,1.2063,1.2051,1.2044,1.2039,1.2037,1.2045,1.2042,1.2042,1.2044,1.2038,1.2038,1.2038,1.2038,1.2101,1.21,1.2087,1.2078,1.2068,1.2062,1.2049,1.2041,1.2033,1.2029,1.2029,1.2031,1.2032,1.2029,1.203,1.2032,1.2022,1.2022,1.2022,1.2091,1.209,1.2079,1.2073,1.2063,1.2055,1.2043,1.2033,1.2024,1.2022,1.2026,1.2026,1.203,1.2031,1.2027,1.2029,1.2031,0,0]},{"header":{"parameterUnit":"m.s-1","parameterCategory":1,"la1":30.2992,"la2":30.254,"lo1":-89.0895,"lo2":-89.0443,"dy":0.0025,"dx":0.0025,"nx":19,"ny":19,"refTime":"2026-03-17T09:00:00:Z","depth":0,"parameterNumber":3,"parameterNumberName":"V-component_of_WINDS"},"data":[0,0,0,-6.1848,-6.1855,-6.2162,-6.2164,-6.2559,-6.2563,0,0,0,0,0,0,0,0,0,0,0,-6.1762,-6.1765,-6.1848,-6.1856,-6.2162,-6.2164,-6.2559,-6.2563,0,0,0,0,0,0,0,0,0,0,0,-6.176,-6.1764,-6.1767,-6.1857,-6.2162,-6.2164,-6.2558,-6.2324,0,0,0,0,0,0,0,0,0,0,-6.2025,-6.1951,-6.1763,-6.1767,-6.1858,-6.2162,-6.2164,-6.2313,-6.2339,-6.2422,0,-6.25,0,-6.2538,-6.259,-6.2591,0,0,0,-6.1852,-6.1929,-6.2008,-6.1768,-6.1861,-6.2161,-6.2023,-6.2328,-6.2357,-6.2457,-6.2505,-6.252,-6.2544,-6.2592,-6.2594,-6.3092,-6.3094,0,0,-6.1835,-6.1819,-6.1988,-6.2027,-6.1983,-6.2013,-6.2032,-6.2345,-6.2396,-6.2507,-6.2529,-6.2551,-6.2595,-6.2598,-6.3089,-6.3092,0,0,0,-6.1788,-6.1807,-6.1878,-6.2011,-6.2066,-6.2022,-6.2044,-6.2383,-6.2407,-6.2533,-6.2556,-6.2597,-6.2602,-6.3087,-6.309,-6.3198,0,0,0,-6.1778,-6.178,-6.1871,-6.1865,-6.2061,-6.2229,-6.2075,-6.2385,-6.2421,-6.2554,-6.2598,-6.2606,-6.3084,-6.3089,-6.3189,-6.3251,0,0,0,-6.174,-6.1776,-6.1822,-6.1863,-6.1995,-6.2224,-6.2267,-6.2394,-6.2435,-6.2592,-6.2607,-6.3082,-6.3088,-6.3182,-6.3239,-6.3376,0,0,0,-6.1694,-6.1914,-6.1824,-6.2077,-6.1992,-6.229,-6.2265,-6.2487,-6.2634,-6.26,-6.3084,-6.309,-6.3179,-6.3231,-6.3368,-6.3488,-6.3538,0,0,-6.1963,-6.1946,-6.2097,-6.2024,-6.2334,-6.2244,-6.2569,-6.2718,-6.2747,-6.2974,-6.2987,-6.3192,-6.3238,-6.3374,-6.3822,-6.3861,0,0,0,-6.2176,-6.2284,-6.2369,-6.2509,-6.2629,-6.2736,-6.2837,-6.2892,-6.3086,-6.2861,-6.3281,-6.3308,-6.3389,-6.3447,-6.348,-6.3549,-6.3117,-6.3116,-6.3116,-6.2534,-6.2558,-6.2808,-6.287,-6.3005,-6.3107,-6.3218,-6.3308,-6.3294,-6.3393,-6.346,-6.3729,-6.3796,-6.3821,-6.3893,-6.3527,-6.3527,-6.3528,-6.3528,-6.2928,-6.3083,-6.3058,-6.3291,-6.3315,-6.351,-6.3615,-6.3598,-6.3781,-6.3681,-6.3753,-6.3639,-6.3864,-6.3927,-6.3537,-6.3535,-6.3534,-6.3533,-6.3533,-6.3163,-6.3241,-6.3305,-6.3508,-6.3661,-6.3715,-6.3892,-6.3908,-6.3924,-6.3995,-6.4066,-6.4065,-6.4063,-6.4028,-6.4029,-6.403,-6.4031,-6.4032,-6.4032,-6.3381,-6.3449,-6.3597,-6.3742,-6.3832,-6.3953,-6.4055,-6.4144,-6.4246,-6.4243,-6.4244,-6.4217,-6.3882,-6.3796,-6.4047,-6.4044,-6.4042,-6.4041,-6.404,-6.3769,-6.3683,-6.3912,-6.4003,-6.4171,-6.4321,-6.4339,-6.4518,-6.4593,-6.4679,-6.4638,-6.4388,-6.4371,-6.4345,-6.4274,-6.4633,-6.4633,-6.4633,-6.4634,-6.3966,-6.3959,-6.4195,-6.4338,-6.4481,-6.4519,-6.4774,-6.4854,-6.4924,-6.4971,-6.4922,-6.4829,-6.4802,-6.4801,-6.4765,-6.4699,-6.5159,-6.5159,-6.516,-6.4204,-6.4212,-6.4427,-6.4495,-6.4627,-6.4739,-6.4978,-6.5142,-6.5203,-6.5181,-6.5008,-6.4986,-6.4837,-6.4788,-6.4761,-6.4705,-6.4583,0,0]}]]